Home > Weather > Sankt Augustin > Past weeks

Flag for Germany Past Weather in Sankt Augustin, North Rhine-Westphalia, Germany — Yesterday and Last 2 Weeks

Now
70 °F

Sunny.


Feels Like: 70 °F
Forecast: 55 / 69 °F
Wind: 3 mph from North

Location: Koeln / Bonn

Current Time: May 26, 2016 at 2:51:05 PM

Latest Report: May 26, 2016 at 2:20 PM


Visibility: 10 mi

Pressure: 30.01 "Hg

Humidity: 43%

Dew Point: 46 °F

Location of Sankt AugustinLocation

Past Weather in Sankt Augustin — Graph

°F

Sankt Augustin Temperature Yesterday

Maximum temperature yesterday: 63 °F (at 2:20 PM)
Minimum temperature yesterday: 48 °F (at 12:20 AM)
Average temperature yesterday: 55 °F

High & Low Weather Summary for the Past Weeks

 TemperatureHumidityPressure
High77 °F (May 11, 4:50 PM)100% (May 23, 3:50 PM)30.12 "Hg (May 23, 3:50 PM)
Low43 °F (May 15, 4:20 AM)29% (May 13, 6:20 PM)29.47 "Hg (May 12, 1:50 PM)
Average57 °F68%29.89 "Hg
* Reported May 11 1:20 PM — May 26 1:20 PM, Sankt Augustin, Weather by CustomWeather, © 2016

Note: Actual official high and low records may vary slightly from our data, if they occured in-between our weather recording intervals... More about our weather records

Advertising

Sankt Augustin Weather History for the Previous 24 Hours

Scroll right to see more
 ConditionsComfort  
Time TempWeatherWind HumidityBarometerVisibility
1:20 PM
Thu, May 26
70 °FPassing clouds.3 mph46%30.01 "HgN/A
12:50 PM68 °FPassing clouds.6 mph49%30.01 "HgN/A
12:20 PM68 °FPassing clouds.2 mph53%30.01 "HgN/A
11:50 AM68 °FScattered clouds.3 mph53%30.01 "HgN/A
11:20 AM66 °FScattered clouds.5 mph56%30.01 "HgN/A
10:50 AM66 °FScattered clouds.3 mph56%30.01 "HgN/A
10:20 AM64 °FSunny.2 mph64%30.01 "Hg10 mi
9:50 AM61 °FSunny.3 mph68%30.04 "Hg10 mi
9:20 AM61 °FPassing clouds.6 mph72%30.04 "HgN/A
8:50 AM57 °FSunny.6 mph77%30.04 "Hg10 mi
8:20 AM55 °FPassing clouds.5 mph82%30.04 "HgN/A
7:50 AM54 °FPassing clouds.5 mph88%30.01 "HgN/A
7:20 AM52 °FClear.3 mph88%30.01 "Hg5 mi
6:50 AM48 °FClear.2 mph94%30.01 "Hg4 mi
6:20 AM46 °FFog.1 mph100%30.01 "Hg4 mi
5:50 AM46 °FFog.1 mph100%30.01 "Hg3 mi
5:20 AM48 °FFog.3 mph94%30.01 "Hg4 mi
4:50 AM50 °FFog.3 mph94%30.01 "HgN/A
4:20 AM50 °FPassing clouds.2 mph94%30.01 "HgN/A
3:50 AM50 °FPassing clouds.3 mph94%30.01 "HgN/A
3:20 AM52 °FPassing clouds.2 mph94%30.01 "HgN/A
2:50 AM52 °FClear.3 mph94%30.01 "Hg10 mi
2:20 AM52 °FClear.3 mph94%30.01 "Hg10 mi
1:50 AM50 °FClear.1 mph94%30.01 "Hg10 mi
1:20 AM50 °FClear.5 mph94%30.01 "Hg10 mi
12:50 AM50 °FClear.1 mph94%30.01 "Hg10 mi
12:20 AM50 °FPassing clouds.3 mph94%30.01 "HgN/A
11:50 PM
Wed, May 25
50 °FPassing clouds.5 mph94%30.01 "HgN/A
11:20 PM50 °FClear.1 mph94%30.01 "Hg10 mi
10:50 PM52 °FClear.3 mph94%30.01 "Hg10 mi
10:20 PM54 °FSunny.1 mph88%29.98 "Hg10 mi
9:50 PM55 °FPartly sunny.2 mph88%29.98 "HgN/A
9:20 PM57 °FScattered clouds.1 mph77%29.98 "HgN/A
8:50 PM59 °FBroken clouds.3 mph72%29.98 "HgN/A
8:20 PM59 °FPartly sunny.2 mph72%29.98 "HgN/A
7:50 PM59 °FPartly sunny.2 mph72%29.98 "HgN/A
7:20 PM61 °FBroken clouds.2 mph68%29.98 "HgN/A
6:50 PM61 °FBroken clouds.1 mph63%29.98 "HgN/A
6:20 PM61 °FBroken clouds.2 mph63%29.98 "HgN/A
5:50 PM61 °FPartly sunny.2 mph63%29.98 "HgN/A
5:20 PM61 °FPartly sunny.3 mph59%29.98 "HgN/A
4:50 PM61 °FPartly sunny.2 mph59%29.98 "HgN/A
4:20 PM63 °FPartly sunny.2 mph56%29.98 "HgN/A
3:50 PM63 °FPartly sunny.2 mph56%29.98 "HgN/A
3:20 PM63 °FPartly sunny.1 mph59%29.98 "HgN/A
2:50 PM61 °FPartly sunny.5 mph59%29.98 "HgN/A
2:20 PM63 °FBroken clouds.3 mph56%29.98 "HgN/A
Weather by CustomWeather, © 2016

See weather overviewHow to use our weather pages